This is the latest recevied weather packets stored in our database for station/object DL8TF-13. If no packets are shown the sender has not sent any weather packets the latest 10 day(s).
| Time | Temp. | Humidity | Pressure | Rain* | Wind** | Luminosity | Snow |
|---|---|---|---|---|---|---|---|
| 1778289883 | 11.67° C | 75% | 986 hPa | - | - | - | - |
| 1778289283 | 11.67° C | 76% | 986 hPa | - | - | - | - |
| 1778288682 | 11.67° C | 78% | 986 hPa | - | - | - | - |
| 1778288082 | 11.67° C | 76% | 986 hPa | - | - | - | - |
| 1778287482 | 12.22° C | 74% | 986 hPa | - | - | - | - |
| 1778286882 | 11.67° C | 76% | 986 hPa | - | - | - | - |
| 1778286282 | 12.22° C | 76% | 986 hPa | - | - | - | - |
| 1778285682 | 12.22° C | 73% | 986 hPa | - | - | - | - |
| 1778285082 | 12.22° C | 74% | 986 hPa | - | - | - | - |
| 1778284482 | 12.22° C | 74% | 986 hPa | - | - | - | - |
| 1778283882 | 12.78° C | 72% | 986 hPa | - | - | - | - |
| 1778283282 | 13.33° C | 70% | 986 hPa | - | - | - | - |
| 1778282682 | 13.33° C | 67% | 986 hPa | - | - | - | - |
| 1778282082 | 13.89° C | 65% | 986 hPa | - | - | - | - |
| 1778281482 | 13.89° C | 64% | 986 hPa | - | - | - | - |
| 1778280882 | 13.89° C | 65% | 986 hPa | - | - | - | - |
| 1778280282 | 13.89° C | 63% | 986 hPa | - | - | - | - |
| 1778279682 | 13.89° C | 63% | 986 hPa | - | - | - | - |
| 1778279081 | 13.89° C | 63% | 986 hPa | - | - | - | - |
| 1778278481 | 14.44° C | 63% | 986 hPa | - | - | - | - |
| 1778277881 | 13.89° C | 63% | 986 hPa | - | - | - | - |
| 1778277281 | 13.89° C | 65% | 986 hPa | - | - | - | - |
| 1778276681 | 14.44° C | 65% | 986 hPa | - | - | - | - |
| 1778276081 | 14.44° C | 65% | 986 hPa | - | - | - | - |
| 1778275481 | 14.44° C | 65% | 985 hPa | - | - | - | - |
* Rain since midnight (hover to see other rain measurements)
** Current wind speed in m/s (hover to see current wind gust speed)